Vorticity
22 5 7 4 8 6 26 0 -16 -9 11 -0 5 6 9 3 -2 -5 1 4 1 3 2 9 10 8 4 5 4 4 4 2 2 3 3 2 2 3 5 6 6 8 10 10 9 9 10 10 11
3 5 4 5 8 14 9 -2 -18 9 21 11 6 2 5 4 5 3 5 4 4 2 5 6 8 10 3 5 4 4 4 2 2 2 2 2 2 2 3 3 4 4 5 7 7 7 6 6 6
9 12 14 13 5 -21 24 19 -2 -2 11 1 5 5 1 6 6 5 4 1 6 3 0 2 5 6 9 7 4 4 5 5 3 2 3 2 3 4 2 2 3 4 4 4 4 2 1 1 2
7 9 8 17 1 -0 -9 -2 5 15 6 2 7 4 7 5 7 4 3 2 3 1 2 3 2 3 4 7 7 7 4 4 5 5 4 2 3 4 5 4 3 3 3 2 2 2 3 3 2
6 5 7 -6 -4 6 14 2 -7 -5 8 5 7 8 8 7 7 3 3 1 1 3 4 4 5 7 5 5 5 6 6 6 4 5 6 5 5 2 3 2 4 4 3 3 3 3 3 2 3
5 4 7 14 4 0 21 9 13 7 7 5 9 7 6 6 5 4 3 3 4 4 3 5 8 12 10 9 11 10 9 9 9 8 7 7 4 8 6 5 6 4 4 4 4 4 4 4 4
5 4 4 -10 22 1 4 12 15 4 4 10 12 9 6 5 4 3 4 5 5 5 5 7 8 4 5 6 6 6 6 7 8 9 10 12 12 11 11 9 9 8 7 7 7 6 5 7 6
9 3 11 -11 4 12 2 6 9 -2 7 5 6 4 9 4 5 6 6 6 6 7 6 8 4 8 9 9 7 6 6 5 6 5 5 6 6 7 8 8 7 9 9 10 7 10 10 2 4
9 5 9 6 10 15 4 -0 3 7 4 6 5 7 2 4 5 6 7 8 9 5 8 3 2 3 4 6 7 5 5 5 8 10 11 12 10 9 11 10 11 12 11 10 9 9 10 10 10
6 8 -7 13 16 -1 -8 8 -1 3 5 4 4 5 4 5 8 9 9 8 7 5 7 4 2 2 6 5 7 7 7 6 5 5 7 7 7 7 6 6 7 6 6 6 6 5 4 3 3
4 5 -6 5 -7 -10 -3 5 4 2 2 3 7 4 6 6 5 5 6 10 12 10 8 6 5 5 6 4 5 1 -1 4 6 5 6 5 2 3 4 2 2 2 1 1 2 1 3 6 7
5 2 3 9 10 13 2 4 5 3 7 2 1 5 4 7 5 9 7 6 8 9 9 7 6 7 7 6 3 4 7 6 5 5 8 6 7 6 3 1 1 0 -0 -1 -1 -1 -1 2 5
3 1 4 6 1 10 1 1 5 6 6 6 3 4 7 7 4 7 3 3 5 9 8 8 8 7 6 7 6 4 4 4 4 3 4 4 3 1 2 3 3 2 3 1 1 1 0 -1 -1
2 3 3 4 5 5 4 6 4 5 5 7 6 4 7 6 4 5 1 1 1 5 8 8 5 4 4 4 4 5 6 5 4 3 3 1 2 2 6 6 4 2 1 2 4 4 5 3 4
6 6 5 6 7 6 8 6 6 9 10 8 5 7 8 7 3 5 2 1 2 9 7 4 4 5 5 4 4 4 5 4 3 2 2 3 5 5 1 -1 -1 1 2 0 -1 -1 5 6 9
10 9 11 7 9 11 10 8 7 8 8 8 9 9 9 9 6 5 4 2 7 5 5 3 3 3 4 4 4 4 3 2 2 3 5 4 3 4 2 1 2 3 8 8 8 11 14 12 13
11 9 9 9 13 13 6 10 3 7 8 7 7 6 9 10 7 4 4 4 2 7 4 3 4 4 3 5 5 5 5 5 7 6 5 4 4 3 4 5 5 5 7 13 12 13 11 13 12
19 17 16 16 12 6 10 10 10 9 8 6 7 10 9 6 3 5 1 7 8 4 4 5 4 4 4 3 3 5 6 6 5 4 3 3 3 1 3 4 7 12 11 9 12 11 14 14 14
10 8 -13 6 -7 5 9 4 19 1 7 10 6 8 8 5 2 2 4 5 4 6 4 5 3 -0 0 0 2 4 2 6 5 5 4 3 3 5 7 13 13 10 11 10 14 14 15 13 14
12 12 9 8 1 -2 -1 7 3 6 2 3 6 4 5 7 5 3 7 6 7 4 4 -1 0 5 6 10 5 4 8 8 8 4 3 4 6 14 15 13 13 14 18 17 14 15 13 12 11
9 12 12 11 10 7 7 7 1 10 4 6 4 4 5 6 6 8 7 6 4 -0 -2 1 3 6 1 5 9 8 9 7 4 2 5 18 19 15 13 13 12 12 11 12 12 13 13 12 14
6 7 7 7 8 13 4 11 8 5 3 4 11 14 12 10 7 3 4 3 -0 -1 -0 0 2 7 8 6 7 7 8 4 1 17 20 15 7 14 8 8 8 7 8 11 10 8 11 12 13
4 4 4 6 8 7 10 6 7 8 5 4 6 10 6 3 4 4 7 1 0 2 0 2 4 9 7 8 7 9 4 1 17 16 9 4 9 3 8 7 8 10 11 17 19 18 17 14 11
4 4 5 8 7 3 8 4 4 8 17 12 -2 2 4 7 6 3 -1 2 1 1 5 4 9 9 10 12 7 4 1 17 14 12 4 7 4 7 9 8 9 8 13 15 16 13 10 10 8
2 2 3 3 3 4 9 9 9 13 6 5 4 5 12 8 5 7 8 4 0 3 5 10 11 12 8 7 7 3 22 14 9 9 6 4 8 8 8 9 14 16 14 18 13 9 7 7 9
-3 2 -1 5 3 11 14 20 25 11 11 12 13 6 -1 -0 -0 2 5 1 6 15 14 9 5 8 10 5 15 16 8 10 8 5 10 7 8 8 11 13 13 12 15 14 9 6 6 8 8
16 3 19 11 2 4 3 6 -13 11 -6 -0 -0 -2 0 -2 -1 4 2 6 9 14 9 7 9 9 2 4 13 10 10 6 6 11 7 9 8 11 11 14 16 14 12 7 5 5 6 9 11
-8 19 18 2 5 7 3 6 5 -4 -2 -3 7 3 0 6 9 0 1 8 11 6 6 10 6 6 3 14 10 8 5 6 12 9 10 7 11 12 17 15 9 6 4 5 7 8 12 16 11
11 0 -7 8 0 6 12 -2 6 8 18 22 10 0 -4 -2 -2 6 6 10 6 7 6 9 6 10 12 11 8 7 8 12 8 9 6 9 14 16 12 6 4 5 8 13 27 37 38 36 32
6 2 7 -12 1 1 4 -11 13 3 -4 -16 -4 -4 6 3 5 12 12 11 5 4 11 14 16 8 9 9 12 7 9 5 10 5 9 15 13 11 4 5 8 16 44 40 21 15 15 16 18
Height
5862 5863 5865 5866 5870 5870 5872 5873 5868 5870 5871 5868 5871 5869 5869 5869 5861 5862 5862 5860 5859 5858 5857 5855 5855 5855 5855 5854 5853 5852 5851 5850 5850 5849 5848 5848 5846 5846 5846 5845 5843 5843 5841 5840 5839 5837 5837 5837 5835
5861 5861 5862 5864 5867 5868 5874 5867 5868 5861 5867 5868 5867 5865 5868 5866 5863 5860 5858 5856 5856 5856 5855 5854 5854 5853 5851 5851 5851 5850 5850 5848 5848 5847 5846 5846 5845 5845 5843 5842 5841 5840 5839 5838 5837 5836 5834 5833 5832
5858 5859 5860 5861 5865 5866 5869 5866 5858 5860 5864 5860 5863 5864 5863 5863 5861 5859 5857 5855 5854 5852 5853 5853 5851 5851 5850 5849 5848 5848 5846 5846 5845 5844 5843 5843 5842 5842 5840 5839 5838 5837 5835 5834 5833 5832 5831 5830 5828
5856 5857 5858 5860 5862 5867 5864 5857 5854 5860 5859 5855 5858 5858 5859 5859 5858 5857 5855 5853 5852 5851 5849 5848 5848 5847 5847 5846 5846 5845 5843 5843 5841 5840 5840 5839 5839 5838 5837 5835 5834 5834 5832 5831 5829 5828 5827 5826 5824
5853 5854 5856 5856 5862 5860 5859 5854 5856 5856 5854 5852 5852 5855 5854 5854 5854 5853 5852 5850 5850 5849 5847 5846 5845 5844 5843 5842 5842 5841 5840 5838 5837 5836 5836 5835 5834 5833 5832 5831 5830 5829 5828 5827 5826 5825 5823 5821 5820
5851 5851 5854 5856 5862 5854 5855 5851 5854 5850 5849 5848 5851 5851 5851 5851 5851 5850 5849 5848 5847 5845 5844 5843 5842 5841 5840 5839 5838 5836 5835 5834 5834 5833 5832 5831 5830 5829 5828 5827 5827 5824 5824 5823 5822 5821 5819 5817 5816
5847 5847 5849 5854 5853 5849 5849 5851 5851 5844 5845 5847 5847 5848 5848 5848 5847 5846 5845 5845 5844 5843 5841 5840 5839 5837 5836 5835 5834 5832 5831 5830 5829 5828 5827 5826 5825 5824 5824 5822 5821 5821 5820 5818 5817 5816 5815 5813 5811
5844 5843 5846 5848 5852 5846 5844 5847 5847 5841 5845 5843 5843 5845 5845 5843 5843 5843 5842 5842 5841 5840 5838 5836 5835 5834 5832 5831 5829 5828 5828 5826 5825 5824 5823 5822 5821 5819 5818 5817 5816 5815 5815 5813 5812 5810 5809 5808 5805
5840 5841 5843 5846 5849 5841 5838 5842 5840 5839 5840 5839 5840 5842 5840 5840 5840 5839 5839 5838 5836 5835 5834 5833 5831 5829 5828 5827 5827 5826 5824 5823 5822 5820 5819 5817 5816 5814 5812 5811 5810 5809 5809 5808 5806 5804 5802 5801 5800
5836 5838 5837 5842 5844 5834 5832 5837 5837 5836 5836 5836 5836 5837 5837 5836 5836 5836 5835 5834 5832 5830 5829 5828 5827 5826 5824 5823 5822 5821 5820 5819 5818 5816 5815 5813 5811 5809 5807 5806 5805 5803 5802 5801 5800 5798 5796 5794 5793
5830 5832 5829 5832 5833 5830 5827 5829 5833 5829 5829 5832 5833 5832 5832 5831 5831 5830 5830 5829 5827 5826 5825 5824 5823 5821 5820 5818 5818 5817 5816 5815 5814 5812 5810 5808 5806 5805 5803 5801 5799 5798 5797 5795 5794 5792 5791 5789 5786
5825 5826 5824 5824 5826 5826 5824 5824 5825 5822 5822 5830 5826 5827 5827 5826 5826 5825 5826 5824 5823 5821 5819 5818 5817 5816 5816 5814 5813 5812 5811 5810 5808 5807 5805 5803 5801 5799 5797 5795 5793 5791 5789 5787 5784 5783 5781 5780 5779
5816 5819 5819 5819 5820 5822 5820 5818 5818 5821 5818 5821 5823 5822 5821 5821 5821 5821 5821 5820 5819 5818 5817 5816 5814 5813 5811 5810 5809 5807 5806 5804 5802 5800 5798 5797 5795 5792 5790 5788 5785 5783 5780 5777 5775 5773 5771 5769 5767
5809 5811 5811 5812 5813 5815 5814 5814 5810 5815 5815 5814 5815 5816 5816 5816 5816 5816 5816 5815 5814 5813 5812 5810 5809 5808 5806 5804 5803 5801 5799 5797 5795 5794 5791 5788 5786 5784 5781 5779 5776 5774 5770 5767 5764 5761 5760 5758 5756
5801 5803 5804 5804 5805 5806 5807 5804 5807 5805 5811 5809 5809 5810 5810 5810 5810 5810 5810 5810 5809 5807 5806 5804 5803 5802 5800 5798 5796 5794 5792 5790 5788 5786 5783 5780 5776 5773 5770 5767 5764 5760 5758 5755 5752 5748 5745 5742 5741
5794 5794 5796 5800 5797 5798 5795 5801 5798 5797 5803 5802 5803 5804 5804 5804 5804 5804 5803 5803 5802 5800 5799 5798 5797 5795 5793 5791 5789 5787 5784 5782 5779 5777 5773 5770 5766 5763 5759 5755 5751 5747 5744 5741 5737 5734 5731 5728 5725
5787 5788 5789 5792 5789 5788 5787 5795 5789 5786 5795 5796 5796 5796 5796 5797 5797 5797 5796 5796 5795 5794 5792 5791 5790 5788 5786 5784 5781 5779 5776 5773 5770 5766 5763 5759 5756 5751 5747 5743 5738 5733 5728 5724 5721 5717 5714 5712 5710
5780 5781 5783 5784 5785 5781 5780 5786 5777 5781 5787 5788 5788 5789 5789 5790 5789 5789 5788 5788 5787 5787 5785 5784 5782 5780 5778 5776 5773 5770 5767 5763 5759 5755 5751 5746 5741 5737 5732 5727 5722 5717 5711 5707 5703 5700 5695 5692 5692
5771 5773 5774 5776 5781 5775 5776 5776 5775 5775 5779 5780 5781 5782 5781 5782 5781 5782 5782 5781 5780 5779 5777 5775 5773 5771 5769 5766 5763 5759 5755 5751 5747 5742 5738 5733 5728 5722 5717 5712 5707 5702 5697 5693 5688 5684 5679 5674 5671
5764 5766 5768 5773 5773 5768 5768 5772 5774 5764 5772 5775 5772 5775 5775 5775 5775 5775 5774 5774 5773 5771 5769 5767 5765 5762 5759 5756 5752 5748 5744 5739 5734 5730 5725 5719 5714 5709 5704 5699 5693 5687 5681 5676 5671 5668 5664 5658 5653
5760 5760 5763 5763 5767 5761 5759 5767 5766 5760 5758 5769 5766 5767 5767 5767 5768 5767 5766 5765 5764 5763 5761 5759 5756 5752 5748 5745 5740 5736 5731 5726 5722 5716 5710 5705 5700 5695 5691 5685 5679 5673 5668 5663 5655 5651 5648 5645 5640
5751 5755 5754 5756 5757 5757 5753 5756 5756 5757 5754 5757 5759 5759 5758 5759 5760 5760 5758 5756 5755 5754 5751 5748 5745 5740 5736 5732 5728 5723 5719 5714 5708 5702 5697 5692 5687 5681 5676 5670 5664 5658 5653 5648 5642 5637 5632 5629 5626
5746 5744 5745 5748 5748 5749 5748 5745 5747 5751 5745 5744 5752 5750 5749 5750 5750 5750 5749 5747 5745 5743 5739 5736 5733 5729 5724 5720 5716 5711 5706 5701 5695 5690 5684 5680 5673 5667 5661 5654 5649 5643 5638 5633 5628 5622 5617 5614 5611
5738 5737 5740 5739 5738 5735 5740 5740 5741 5740 5742 5736 5738 5738 5740 5739 5739 5739 5739 5737 5735 5731 5727 5723 5720 5717 5712 5708 5703 5699 5693 5688 5683 5678 5673 5667 5660 5654 5648 5640 5634 5628 5623 5617 5611 5607 5603 5600 5596
5728 5727 5729 5726 5726 5726 5732 5729 5733 5734 5733 5726 5725 5728 5729 5726 5726 5726 5727 5726 5723 5718 5715 5711 5708 5704 5700 5696 5691 5686 5680 5675 5670 5665 5660 5654 5648 5641 5634 5627 5620 5612 5606 5601 5596 5593 5588 5584 5580
5717 5717 5716 5714 5716 5720 5722 5716 5721 5721 5717 5719 5719 5717 5716 5715 5713 5713 5713 5713 5710 5705 5702 5699 5695 5692 5687 5683 5679 5673 5667 5662 5657 5652 5646 5640 5634 5627 5621 5613 5605 5598 5592 5588 5583 5578 5573 5569 5564
5707 5702 5711 5705 5707 5706 5709 5711 5710 5710 5710 5712 5710 5706 5704 5703 5702 5701 5700 5699 5697 5694 5689 5686 5682 5680 5675 5670 5665 5660 5655 5650 5644 5638 5632 5625 5619 5613 5607 5599 5591 5585 5579 5574 5569 5563 5558 5553 5547
5690 5699 5693 5690 5691 5691 5697 5700 5703 5704 5697 5700 5699 5693 5692 5692 5690 5689 5688 5687 5684 5682 5678 5673 5670 5667 5662 5657 5652 5647 5642 5636 5630 5624 5619 5612 5606 5599 5592 5585 5578 5572 5566 5560 5554 5547 5540 5535 5529
5675 5682 5679 5678 5676 5679 5682 5689 5693 5690 5684 5683 5684 5684 5683 5681 5678 5675 5673 5672 5671 5669 5666 5661 5658 5655 5650 5645 5639 5634 5628 5623 5618 5612 5605 5598 5592 5585 5579 5572 5565 5558 5551 5543 5536 5529 5523 5517 5512
5662 5661 5665 5659 5663 5665 5666 5673 5678 5679 5670 5670 5675 5673 5671 5669 5666 5664 5661 5661 5658 5655 5654 5649 5644 5642 5636 5632 5627 5622 5616 5611 5605 5599 5592 5586 5579 5573 5566 5558 5551 5543 5536 5528 5523 5517 5511 5505 5500